Japanese version Home page |
Updated on June 11, 2023 |
Profile |
Orbital ElementsEpoch 2028 Aug. 17.0 TT = JDT 2462000.5 T 2028 Sept. 5.40695 TT Rudenko q 1.3874271 (2000.0) P Q n 0.11880669 Peri. 200.54608 +0.99671123 -0.00106289 a 4.0980329 Node 159.01652 +0.01678700 +0.98093187 e 0.6614407 Incl. 13.07779 -0.07927750 +0.19434903 P 8.30 From 501 observations 1970 Oct. 1-2020 Nov. 23, mean residual 0".9. Nongravitational parameters A1 = +0.09, A2 = +0.1398.
|
Finding Charts
|
Magnitudes Graphm1 = 4.0 + 5 log d + 35 log r(t + 15)
|
The orbital elements are published on M.P.E.C. 2021-F20.
|